Wind_Speed
24 22 23 24 24 24 24 25 25 25 26 27 26 26 26 25 26 26 26 26 26 24 23 23 24 23 23 22 21 20 19 18 17 16 16 16 15 14 14 13 12 11 10
23 24 25 26 25 25 26 26 26 25 26 26 26 26 26 26 26 27 28 28 27 27 26 25 25 25 25 24 22 22 21 20 19 18 18 18 17 16 15 15 14 13 12
25 26 27 27 27 27 27 27 27 27 27 27 26 26 27 26 26 26 28 29 28 28 27 27 26 26 27 26 25 23 22 21 21 20 20 19 19 19 18 17 16 15 14
27 27 28 28 28 29 29 28 28 28 28 27 27 27 27 27 26 26 27 29 30 29 29 28 28 27 27 27 26 25 25 23 22 22 21 20 20 19 19 19 18 17 16
28 29 29 30 30 30 30 29 29 28 28 28 27 27 28 28 28 28 28 29 31 31 31 30 29 29 28 27 28 27 26 25 24 23 22 21 20 20 20 20 20 19 18
30 30 31 31 31 31 31 30 30 30 29 28 27 27 28 28 29 29 29 29 30 33 33 32 31 31 30 29 29 29 28 27 25 24 23 22 21 21 21 21 21 21 20
32 32 32 33 33 33 32 32 31 31 30 29 28 28 28 28 29 29 29 29 30 32 33 34 33 32 31 31 30 29 30 28 27 25 24 23 22 21 21 21 21 21 21
34 34 34 34 35 35 34 34 33 32 32 31 30 29 28 28 28 28 29 30 31 32 33 34 34 33 33 32 31 31 31 29 28 27 25 24 23 22 21 21 20 20 20
36 36 36 36 36 36 36 36 35 34 33 33 32 31 30 29 29 29 30 31 32 33 33 34 34 34 33 33 32 32 31 30 29 28 26 25 24 23 22 21 20 20 20
37 37 37 37 37 37 37 37 36 35 35 34 34 34 33 31 30 30 30 31 32 33 34 35 34 35 34 33 33 33 33 31 30 29 27 26 25 23 22 21 20 20 19
38 37 37 37 37 37 37 37 37 37 36 36 36 35 35 34 32 31 30 31 33 33 34 35 36 36 35 35 34 34 34 33 31 30 28 27 26 24 23 21 21 20 19
38 38 37 37 37 38 38 38 38 38 37 37 37 36 36 35 34 34 32 32 33 34 34 36 37 37 36 36 36 35 35 35 33 31 30 28 27 26 24 22 21 20 19
36 37 37 37 37 37 37 38 38 38 38 37 37 37 37 37 37 36 35 34 34 35 36 37 38 38 38 38 38 38 37 37 35 33 31 30 28 27 25 24 22 21 20
35 36 36 36 36 37 37 37 37 37 37 37 37 37 37 37 38 38 37 37 36 36 37 37 39 39 40 40 40 40 40 39 37 35 33 32 30 28 27 25 24 22 20
35 36 36 37 37 37 37 37 37 37 37 37 37 37 37 38 38 39 39 39 38 38 38 38 40 41 42 42 42 42 41 41 39 38 36 34 32 30 28 26 24 23 21
36 37 37 37 38 38 38 38 38 38 38 38 39 39 39 39 39 40 40 40 40 39 40 40 41 43 44 45 44 43 43 43 42 40 38 36 34 32 30 27 25 24 22
37 37 38 38 39 39 39 39 39 40 40 40 40 40 40 41 41 41 42 42 42 42 41 41 42 44 45 45 46 45 44 43 43 41 40 38 36 34 32 30 28 26 24
38 38 39 39 40 40 40 40 40 41 41 42 42 42 41 42 42 42 43 43 44 45 44 43 43 44 46 47 46 46 45 45 44 43 42 41 39 37 35 33 31 29 27
39 39 39 40 40 40 40 40 40 41 41 42 43 43 43 44 44 44 45 45 46 46 46 46 46 46 46 47 47 47 46 46 45 45 44 43 41 39 37 36 34 31 29
39 39 40 40 40 40 39 39 39 39 40 41 43 44 45 45 45 46 47 47 47 48 48 48 49 49 48 48 49 49 47 46 46 47 47 45 43 41 40 38 36 34 32
40 40 41 41 40 39 39 39 39 39 40 41 42 44 45 46 47 48 48 49 49 49 49 49 51 52 50 50 51 50 49 48 47 47 47 47 45 43 42 40 38 36 34
41 41 41 40 38 38 38 38 38 38 39 40 42 43 45 46 47 49 49 50 51 51 51 52 53 52 52 51 52 51 50 48 47 47 47 47 47 46 44 42 40 38 37
42 41 40 39 38 37 38 38 37 37 38 39 40 42 45 46 47 49 50 52 53 54 54 54 54 55 55 54 54 53 51 50 49 48 48 48 48 47 46 44 42 41 39
42 41 39 38 38 38 38 37 37 36 36 37 39 40 42 44 47 49 51 52 54 56 56 56 55 56 58 57 56 56 54 53 52 52 51 50 48 48 48 46 45 43 41
42 41 39 39 38 38 38 37 37 36 35 35 36 38 39 42 44 47 49 51 53 56 57 57 57 57 58 59 58 57 56 54 53 53 53 52 50 49 49 48 47 45 43
41 41 39 39 38 38 37 37 36 35 33 33 33 34 36 38 41 44 46 48 51 54 56 58 58 58 58 59 60 58 56 55 54 53 52 51 51 51 50 49 48 46 45
Wind_Direction
281 282 283 285 285 285 286 285 283 282 279 276 274 271 268 263 257 251 247 244 241 237 235 232 229 227 225 222 221 222 221 221 221 220 219 218 216 215 215 215 215 215 214
286 285 289 289 287 286 286 285 286 282 280 278 276 273 271 266 260 253 246 242 241 238 236 233 231 229 225 221 220 221 223 223 223 224 222 221 219 219 219 219 219 220 220
287 288 290 289 287 287 286 285 284 282 280 277 275 272 270 267 261 253 247 243 241 239 237 234 233 232 227 224 222 223 224 225 225 225 224 223 223 224 224 224 223 222 224
290 290 289 287 287 286 286 285 283 282 280 277 273 272 269 265 261 255 248 244 241 240 238 235 232 231 228 225 223 223 225 226 226 226 225 224 225 225 225 225 225 226 226
290 290 290 288 287 286 284 284 283 283 280 277 272 270 269 264 258 256 250 247 242 239 237 235 232 230 229 226 224 224 225 225 224 226 226 226 226 228 227 227 227 228 228
291 291 290 289 287 286 284 282 281 280 279 277 273 270 269 263 257 254 250 246 242 239 236 234 232 230 229 227 227 225 224 223 223 224 226 227 228 229 229 228 228 230 231
293 292 290 288 286 284 283 281 280 278 278 275 272 270 268 265 259 254 250 245 241 239 235 234 232 231 230 227 225 224 224 223 222 224 226 228 229 228 228 228 229 232 234
293 292 289 287 285 284 282 281 279 277 276 274 272 268 266 265 259 254 251 247 240 239 237 232 230 229 229 227 225 224 223 223 222 223 225 226 227 228 227 228 230 232 234
293 291 289 287 285 283 281 281 279 276 275 273 271 267 264 262 259 254 251 248 240 237 235 231 227 227 226 224 223 222 222 222 221 222 223 224 226 227 226 227 229 231 233
293 291 289 287 285 282 281 279 278 276 273 271 268 265 263 261 258 253 250 246 242 237 233 229 225 224 223 222 222 221 220 219 219 220 221 223 224 225 225 226 229 231 234
293 291 289 287 285 283 281 279 277 275 272 269 267 264 262 259 255 251 247 244 240 237 233 227 224 223 223 222 221 221 220 218 218 219 221 221 222 223 224 226 229 231 234
292 291 289 287 285 283 281 278 276 274 272 269 266 263 260 257 254 250 246 244 240 236 232 228 225 223 223 222 221 220 219 219 218 219 220 220 221 222 223 226 229 230 232
293 291 290 288 285 283 280 278 276 274 271 268 264 261 257 254 252 249 245 242 239 235 233 229 226 223 223 222 221 220 219 219 219 219 219 219 220 222 223 225 227 228 230
295 293 291 289 287 284 281 278 275 272 269 266 263 259 255 252 250 248 244 241 238 235 232 230 227 224 223 222 221 221 220 219 219 219 219 220 221 221 222 224 225 227 229
299 297 294 291 288 286 282 279 275 272 269 265 262 258 254 251 248 246 243 241 238 235 231 229 227 225 223 221 221 221 221 219 219 219 219 220 220 220 221 223 224 224 225
302 299 297 293 290 287 284 280 276 272 268 265 261 258 254 251 247 245 241 239 238 235 231 229 228 224 224 222 221 221 221 220 219 219 219 220 220 220 221 221 222 222 224
305 302 299 296 293 289 285 281 277 273 269 265 261 257 254 250 247 244 240 237 236 235 231 228 228 226 222 222 221 221 220 221 219 219 219 220 220 221 221 221 222 223 223
308 305 302 299 295 291 286 282 278 273 268 264 261 257 253 250 246 243 240 237 235 233 231 227 227 227 225 223 222 221 220 221 220 220 220 220 221 221 221 221 222 223 224
310 307 305 302 297 293 289 284 279 274 269 264 260 256 253 250 246 243 240 237 235 232 230 228 226 225 224 223 221 220 220 221 221 220 220 220 221 221 221 222 223 224 224
313 310 308 305 301 296 292 287 282 277 271 266 261 257 253 249 246 243 240 237 235 233 230 228 225 223 222 222 221 220 220 221 221 221 221 221 221 221 221 222 223 224 225
314 313 310 307 304 299 294 290 284 278 273 268 262 257 253 249 245 243 239 236 234 232 231 229 225 222 220 221 222 220 220 221 221 222 221 221 221 221 221 222 223 224 225
316 314 312 309 305 301 297 293 287 280 274 269 263 258 253 250 245 242 238 236 233 232 230 228 226 223 221 220 220 220 221 220 221 222 222 222 221 220 220 221 223 224 225
317 316 314 311 307 303 300 296 291 284 278 272 265 259 254 250 246 242 239 235 233 231 229 228 226 224 222 221 220 220 220 220 220 222 223 222 222 221 221 221 222 224 225
319 317 314 311 308 305 302 299 294 288 283 275 267 260 255 250 247 243 239 235 233 231 229 227 226 224 223 222 221 221 222 223 222 223 223 223 222 222 222 222 223 224 226
320 318 316 313 310 307 305 301 297 291 285 277 269 262 257 252 248 244 239 235 232 230 228 227 225 223 222 222 221 221 221 221 221 223 224 223 222 222 222 222 223 224 226
321 320 318 316 313 311 307 304 299 294 287 279 272 265 259 253 247 242 237 234 231 229 228 226 225 223 221 221 221 221 221 221 222 223 223 223 223 222 222 221 222 223 225
Height
5865 5864 5863 5862 5861 5860 5860 5860 5859 5858 5858 5857 5857 5858 5859 5860 5862 5864 5866 5868 5870 5873 5875 5877 5879 5882 5885 5888 5891 5894 5896 5899 5901 5903 5905 5907 5909 5911 5912 5914 5916 5917 5919
5858 5858 5857 5856 5855 5855 5854 5854 5853 5852 5852 5851 5851 5851 5852 5853 5855 5857 5859 5862 5864 5867 5869 5872 5874 5877 5880 5883 5886 5889 5893 5895 5897 5900 5902 5904 5906 5908 5910 5912 5914 5915 5917
5853 5853 5852 5851 5850 5849 5849 5847 5847 5846 5845 5845 5845 5845 5845 5846 5848 5850 5852 5855 5858 5860 5863 5866 5869 5871 5875 5878 5881 5885 5888 5891 5894 5896 5898 5901 5903 5905 5907 5909 5911 5913 5915
5847 5847 5846 5844 5844 5843 5842 5841 5840 5839 5839 5839 5839 5839 5839 5840 5841 5843 5845 5848 5851 5854 5857 5860 5863 5866 5869 5872 5876 5880 5883 5886 5889 5892 5895 5897 5899 5902 5904 5906 5908 5910 5912
5842 5840 5839 5838 5837 5836 5835 5835 5834 5833 5832 5832 5832 5832 5832 5832 5834 5835 5838 5840 5843 5846 5850 5853 5857 5860 5863 5867 5870 5874 5878 5881 5885 5888 5891 5893 5896 5898 5900 5903 5905 5907 5909
5835 5833 5832 5830 5829 5828 5827 5827 5826 5826 5825 5825 5825 5825 5825 5826 5827 5828 5831 5833 5836 5839 5843 5846 5850 5853 5857 5861 5864 5868 5872 5876 5880 5883 5886 5889 5891 5894 5896 5899 5901 5903 5906
5826 5825 5824 5822 5821 5820 5819 5819 5818 5818 5818 5817 5818 5818 5819 5819 5819 5821 5823 5825 5828 5831 5835 5839 5842 5846 5850 5854 5859 5863 5867 5871 5874 5878 5881 5884 5887 5890 5892 5895 5897 5899 5902
5818 5816 5815 5814 5812 5811 5810 5810 5810 5810 5809 5809 5809 5810 5811 5812 5812 5813 5815 5817 5820 5823 5827 5830 5835 5839 5844 5848 5853 5857 5861 5865 5869 5872 5876 5879 5882 5885 5888 5890 5893 5895 5897
5809 5808 5806 5804 5803 5802 5801 5800 5800 5800 5800 5800 5800 5801 5803 5804 5805 5806 5808 5809 5812 5815 5819 5823 5827 5832 5836 5841 5846 5850 5855 5859 5863 5867 5871 5874 5878 5881 5883 5886 5888 5890 5893
5800 5798 5796 5795 5793 5792 5791 5790 5790 5790 5790 5791 5791 5792 5793 5795 5797 5799 5800 5802 5804 5807 5811 5815 5820 5825 5829 5834 5839 5844 5849 5853 5857 5861 5865 5869 5873 5876 5879 5881 5884 5886 5888
5790 5788 5786 5785 5783 5781 5780 5780 5779 5779 5780 5781 5781 5782 5784 5785 5787 5789 5792 5794 5796 5799 5803 5807 5812 5817 5822 5827 5832 5837 5842 5847 5851 5856 5860 5864 5867 5871 5874 5877 5879 5882 5884
5781 5778 5776 5774 5772 5771 5770 5769 5768 5768 5769 5769 5770 5772 5773 5776 5778 5780 5783 5786 5788 5791 5795 5799 5804 5809 5814 5820 5825 5830 5835 5841 5845 5850 5854 5858 5862 5866 5869 5872 5875 5877 5879
5771 5768 5765 5763 5761 5760 5759 5758 5757 5757 5757 5758 5759 5761 5763 5765 5768 5770 5774 5777 5780 5783 5787 5791 5796 5801 5806 5812 5817 5823 5828 5834 5839 5843 5848 5852 5856 5860 5864 5867 5870 5872 5875
5761 5758 5755 5753 5751 5749 5747 5746 5746 5745 5746 5747 5748 5750 5752 5754 5757 5760 5763 5767 5771 5774 5778 5783 5787 5792 5798 5804 5809 5815 5820 5826 5831 5837 5842 5846 5850 5855 5859 5862 5865 5868 5871
5751 5748 5745 5742 5740 5737 5736 5735 5734 5734 5734 5735 5736 5738 5740 5743 5746 5749 5753 5756 5761 5765 5770 5774 5778 5783 5789 5795 5801 5806 5812 5818 5824 5829 5835 5840 5844 5849 5853 5857 5860 5863 5866
5740 5737 5734 5731 5728 5726 5724 5723 5722 5722 5722 5723 5724 5726 5728 5731 5734 5738 5741 5746 5750 5755 5760 5765 5769 5774 5780 5786 5792 5798 5804 5810 5816 5822 5827 5833 5838 5843 5847 5851 5855 5858 5862
5730 5726 5722 5719 5716 5714 5712 5710 5709 5708 5709 5710 5711 5713 5715 5718 5722 5725 5730 5734 5739 5744 5750 5754 5759 5764 5770 5776 5782 5789 5795 5801 5807 5814 5820 5826 5831 5836 5841 5845 5850 5854 5857
5719 5715 5711 5707 5704 5701 5698 5697 5695 5695 5695 5696 5697 5699 5702 5705 5709 5712 5717 5722 5727 5732 5738 5744 5749 5754 5760 5766 5772 5779 5786 5792 5799 5805 5812 5818 5824 5829 5834 5839 5844 5848 5852
5709 5704 5699 5695 5691 5688 5685 5682 5681 5680 5680 5681 5682 5684 5687 5691 5695 5699 5704 5709 5714 5719 5726 5732 5738 5743 5749 5755 5762 5769 5776 5783 5789 5796 5803 5809 5815 5821 5827 5832 5837 5842 5846
5698 5693 5688 5683 5678 5674 5671 5668 5666 5666 5665 5666 5667 5669 5672 5675 5680 5684 5690 5695 5701 5706 5713 5719 5726 5732 5738 5745 5752 5758 5766 5773 5780 5787 5793 5800 5807 5813 5819 5825 5830 5835 5839
5688 5682 5676 5671 5665 5661 5657 5654 5652 5651 5650 5651 5651 5653 5656 5659 5664 5669 5675 5680 5687 5693 5700 5706 5713 5720 5727 5734 5741 5748 5756 5763 5770 5777 5784 5791 5798 5804 5810 5816 5822 5827 5832
5678 5671 5665 5659 5653 5649 5645 5641 5638 5636 5635 5635 5636 5637 5640 5643 5648 5653 5659 5665 5672 5679 5686 5693 5701 5708 5715 5723 5730 5738 5745 5753 5760 5768 5774 5781 5788 5795 5802 5808 5814 5820 5825
5667 5660 5654 5648 5642 5637 5632 5628 5624 5622 5621 5620 5620 5621 5623 5627 5631 5636 5642 5649 5656 5663 5671 5679 5687 5695 5703 5712 5719 5727 5734 5742 5750 5757 5764 5771 5778 5786 5793 5799 5806 5812 5817
5657 5650 5643 5637 5631 5626 5620 5616 5611 5608 5606 5604 5604 5605 5607 5610 5614 5619 5625 5632 5639 5647 5656 5665 5674 5682 5689 5697 5707 5715 5722 5730 5738 5746 5753 5761 5769 5776 5783 5790 5797 5803 5809
5647 5640 5633 5626 5620 5614 5608 5603 5599 5595 5592 5590 5589 5590 5591 5594 5598 5602 5608 5616 5623 5631 5639 5648 5657 5666 5675 5685 5694 5702 5711 5719 5727 5735 5743 5751 5759 5766 5773 5781 5788 5794 5801
5637 5630 5623 5616 5609 5603 5597 5591 5586 5582 5579 5577 5576 5576 5577 5579 5582 5586 5592 5599 5607 5615 5623 5632 5642 5652 5661 5671 5680 5690 5699 5708 5716 5724 5732 5740 5748 5756 5764 5771 5778 5785 5792